Location: Newark
(35.5300°N, 14.3000°E)
Time: 04:40:51
(UTC+00:00)

S-56A Canister/Altair - Pass Details

Date: 18 November 2019
Orbit: 632 x 2500 km, 38.9° (Epoch: 14 December)

Event Time Altitude Azimuth Distance (km) Brightness Sun altitude
Rises 17:59:43 0° 267° (W) 4,741 12.9 -25.4°
Reaches altitude 10° 18:03:24 10° 270° (W) 3,449 11.9 -26.1°
Maximum altitude 18:11:31 67° 353° (N) 1,072 8.1 -27.8°
Enters shadow 18:12:08 63° 26° (NNE) 1,072 8.0 -27.9°
